GFSNGP_700_rhum_000.txt.gz
RH
23 22 23 22 21 28 36 35 40 29 32 35 44 48 52 55 60 65 71 78 84 89 88 88 97 90 70 44 24 16 13 10 8 8 8 8 9 10 11 14 22 38 52 71
28 26 25 23 23 22 24 26 31 33 25 29 41 46 48 50 59 68 76 83 88 97 97 96 86 79 58 31 17 14 12 10 9 9 9 10 12 12 14 25 37 56 69 91
23 19 22 21 12 12 13 16 19 25 21 30 33 44 51 55 60 70 77 83 93 97 79 74 77 70 41 20 16 14 11 10 11 11 12 13 13 15 22 42 59 74 91 99
22 24 43 13 13 13 13 15 15 21 25 30 39 49 53 54 62 75 85 90 82 73 76 80 77 46 22 19 17 14 13 12 13 14 13 14 16 27 41 54 66 82 89 93
22 25 21 16 14 13 14 17 18 28 35 36 37 43 32 40 62 84 89 84 86 88 86 86 54 23 21 22 20 17 15 14 15 14 13 17 26 39 56 65 73 82 100 100
27 29 40 17 15 14 16 25 19 24 37 33 37 38 35 63 70 83 94 90 94 91 91 72 25 23 30 25 21 18 15 14 14 15 18 23 37 53 68 70 74 76 61 30
33 33 27 21 20 20 34 20 30 30 31 40 43 47 54 66 90 99 90 98 98 96 89 32 25 32 27 24 20 14 13 14 16 20 22 34 51 72 78 73 59 26 22 28
32 41 36 21 24 30 27 33 40 45 49 56 58 61 66 87 100 100 99 96 97 100 58 26 28 30 26 21 15 13 14 16 20 23 31 45 65 87 83 73 41 31 32 32
29 24 26 32 38 42 45 51 50 61 69 75 70 66 79 89 88 98 98 98 98 87 34 33 42 26 21 16 13 13 16 20 23 24 42 52 77 92 94 91 64 39 30 27
34 34 36 41 47 49 58 57 58 75 82 81 74 80 87 93 100 98 95 97 94 40 30 36 25 21 17 13 12 15 20 24 25 30 50 64 85 100 99 97 60 35 27 26
39 36 42 44 44 46 49 49 52 62 76 72 73 87 97 95 98 96 98 95 42 37 31 26 23 17 13 11 13 20 26 27 28 44 52 70 82 100 99 92 46 28 26 28
49 50 56 52 51 50 51 52 59 63 68 72 87 92 99 99 97 98 95 61 60 42 29 25 17 12 12 16 24 29 30 31 34 54 55 68 93 100 97 51 26 27 26 32
63 64 64 62 60 58 53 53 56 62 74 100 99 99 99 97 97 95 94 82 54 32 25 15 11 13 20 24 27 36 37 38 39 65 70 84 96 90 44 24 32 31 28 33
64 67 67 72 73 70 69 69 74 84 97 98 94 96 98 97 94 92 90 51 32 22 13 10 14 24 27 24 28 37 44 43 44 81 88 86 84 42 33 41 37 32 32 33
65 72 77 82 85 79 76 86 91 99 96 99 100 97 97 95 94 90 46 32 19 12 10 15 24 31 27 25 32 41 46 49 54 81 100 92 74 42 50 45 32 30 31 34
81 88 88 85 80 74 80 98 100 98 99 98 97 96 95 94 87 42 28 18 12 11 16 21 33 33 31 31 34 44 51 56 60 78 95 100 84 53 54 39 27 29 31 34
82 80 78 75 74 74 80 80 100 99 97 96 95 94 92 66 38 26 16 13 12 16 20 28 36 37 37 38 39 45 50 56 64 70 96 100 94 63 60 40 22 26 33 35
84 85 89 93 96 97 99 98 99 98 96 95 94 82 52 36 25 18 14 13 16 20 30 36 42 44 45 49 47 50 53 56 61 68 92 98 98 77 69 59 31 23 30 33
96 100 100 100 99 98 97 97 96 95 94 93 79 51 36 25 19 15 14 17 23 30 37 44 48 48 48 58 58 55 53 53 53 58 80 90 96 86 77 78 71 40 26 32
99 99 97 97 96 96 95 94 93 93 93 85 56 40 27 21 17 16 18 23 35 42 46 51 55 55 58 64 64 65 61 55 49 50 68 86 93 93 93 91 94 93 70 33
95 94 93 92 91 87 86 83 88 89 74 52 36 27 21 18 20 25 31 39 49 61 62 59 58 58 61 67 66 70 71 64 50 49 60 80 95 99 100 100 99 99 98 98
84 86 84 75 57 62 80 91 81 53 38 31 25 22 22 28 40 46 52 62 67 75 74 64 57 52 52 63 66 70 74 64 52 52 60 80 97 100 100 100 100 100 99 99
58 40 50 66 68 63 53 41 36 32 28 26 28 36 46 47 52 64 65 71 79 85 82 75 68 58 50 51 64 76 82 64 53 47 43 46 58 82 99 100 100 100 100 98
60 64 65 56 43 39 37 34 32 33 35 38 44 53 54 49 33 49 59 69 82 86 70 53 51 61 63 61 76 90 90 70 54 44 41 38 33 30 29 35 50 78 94 99
66 56 48 44 41 39 38 39 43 49 42 36 37 38 37 33 29 23 22 23 27 25 63 59 78 85 83 86 93 100 97 86 71 57 48 36 29 26 25 25 27 32 53 65
52 48 47 45 44 46 49 46 41 36 32 31 31 28 24 24 25 27 25 21 28 32 59 80 100 100 100 100 100 100 100 99 95 79 50 36 35 36 35 32 29 26 26 37
52 52 56 64 67 56 45 36 33 34 32 28 25 24 24 24 25 26 30 34 36 40 100 100 100 100 100 100 100 100 100 99 99 84 49 43 44 43 37 30 27 26 25 28

GFSNGP_700_rhum_006.txt.gz
RH
37 31 24 22 30 24 24 24 31 19 25 23 28 24 22 26 33 43 54 55 58 60 61 69 84 93 94 93 77 82 82 50 27 21 21 21 20 14 10 11 14 16 25 37
39 36 30 24 21 24 21 30 16 24 13 25 16 18 16 23 35 44 49 52 56 58 61 72 87 95 95 85 86 90 67 34 22 23 22 23 18 12 11 14 16 22 38 93
43 34 35 38 22 20 14 12 12 28 25 21 16 18 20 26 31 37 47 53 59 64 73 85 92 97 95 88 93 82 42 23 24 23 24 23 13 11 13 17 21 32 51 84
30 25 70 25 16 14 16 13 13 13 13 16 18 24 29 36 34 34 36 31 34 68 84 90 97 97 95 94 92 55 29 32 27 25 26 16 9 12 17 21 30 40 60 67
23 42 23 16 14 14 15 16 16 15 14 16 21 32 34 44 37 37 40 41 55 79 91 94 97 97 95 96 77 42 43 34 26 27 17 9 10 17 23 26 39 51 73 71
28 37 82 20 16 17 18 29 26 21 23 25 26 31 41 46 41 45 48 53 60 78 91 96 98 98 97 90 49 59 41 29 28 16 8 10 17 23 26 30 47 58 77 80
39 36 30 21 21 23 35 36 31 31 32 34 38 49 47 48 58 62 64 69 76 87 94 93 91 98 95 60 86 49 33 28 14 8 10 14 18 26 28 38 54 65 87 89
30 36 43 25 26 30 37 33 30 35 47 50 52 55 60 69 78 86 86 81 83 88 92 97 97 97 80 92 58 40 28 12 8 10 12 13 19 29 32 44 57 69 78 91
30 31 28 31 34 37 37 35 35 39 44 49 54 52 52 58 80 88 93 88 89 95 97 98 99 95 95 89 44 26 10 9 9 13 13 13 20 30 36 52 62 74 82 82
30 31 34 38 37 40 43 48 53 55 52 52 52 53 55 59 70 86 86 95 100 100 98 99 96 95 95 57 24 9 10 10 14 16 13 14 25 31 38 57 67 76 81 38
35 34 41 42 46 58 65 67 66 66 65 61 58 58 58 60 67 76 88 94 98 98 98 96 94 94 82 41 10 12 12 17 21 16 14 20 31 34 42 64 73 77 47 38
48 60 59 60 64 69 68 67 67 73 76 77 83 78 71 68 80 93 95 98 99 96 96 94 93 81 48 12 13 14 18 26 25 17 19 26 32 36 45 68 67 59 46 51
50 51 56 62 68 68 74 75 83 88 88 83 80 79 86 82 94 100 100 97 96 96 93 92 76 43 12 15 18 20 28 32 28 21 24 29 34 38 44 63 75 63 55 50
45 50 60 62 76 82 90 95 100 96 89 90 89 98 100 100 100 99 96 96 95 92 90 63 30 14 17 19 24 31 37 36 29 29 30 34 37 39 44 65 82 77 59 51
50 60 74 85 93 100 100 94 92 91 98 99 98 99 100 97 95 96 96 94 92 85 65 23 14 17 20 26 34 40 41 39 35 37 41 38 41 46 49 64 80 85 66 58
78 84 86 85 93 100 100 100 99 98 100 100 100 98 98 97 96 95 94 89 78 51 29 16 19 23 30 36 44 47 45 44 42 39 44 53 53 53 56 59 78 83 77 70
78 83 91 96 98 98 98 100 100 100 99 98 97 96 95 94 88 60 42 31 23 20 20 21 26 32 40 45 54 57 58 53 45 47 50 59 64 64 61 59 74 87 86 80
98 100 98 92 84 84 98 96 100 99 97 96 94 83 55 41 34 30 26 23 22 23 30 34 33 37 47 58 61 61 66 64 54 47 44 52 64 71 70 61 61 86 94 92
79 79 77 82 90 94 96 96 95 92 86 76 60 46 40 34 30 26 25 27 33 36 41 44 44 46 53 60 68 65 70 78 77 72 66 54 57 67 73 63 63 74 97 100
92 92 91 89 86 81 76 73 70 64 52 43 40 37 32 30 29 31 34 38 46 47 38 38 37 36 37 38 45 52 70 86 82 73 71 69 64 71 78 66 68 81 96 100
90 84 76 67 58 55 48 45 43 42 40 38 36 36 37 39 40 38 36 30 32 33 33 33 33 31 31 30 31 30 48 58 64 54 66 82 83 91 88 72 79 95 100 100
87 78 58 48 42 40 42 42 42 41 40 39 39 41 41 39 34 31 30 31 32 35 35 32 28 27 28 30 33 31 48 100 99 75 92 99 100 100 97 81 74 71 64 56
62 52 49 47 50 50 48 46 44 43 42 44 42 40 36 34 34 35 37 39 39 37 33 30 29 30 29 28 29 40 85 100 89 85 100 100 100 97 99 97 78 84 75 38
63 63 62 60 57 52 50 51 50 48 46 44 42 43 43 43 42 41 35 29 28 28 28 29 32 34 34 34 44 62 84 86 93 86 88 100 100 100 99 100 99 99 92 53
77 71 67 57 53 53 53 52 49 46 46 47 49 48 40 33 28 24 22 20 16 14 13 13 16 24 44 49 63 74 100 100 98 92 83 90 98 100 99 100 100 99 98 72
65 58 55 56 57 55 52 50 52 53 53 51 47 38 28 21 16 10 8 10 12 13 15 16 20 34 73 98 86 100 100 100 100 85 81 88 94 98 99 100 100 99 98 98
58 58 63 65 63 63 63 63 64 62 56 46 31 21 13 8 10 13 15 15 14 15 17 26 49 98 100 100 100 100 99 100 100 95 83 84 91 96 99 100 100 100 98 91

GFSNGP_700_rhum_009.txt.gz
RH
39 43 36 31 30 30 28 27 23 24 14 15 19 25 29 38 24 47 66 50 60 58 58 61 65 69 76 85 98 99 98 89 89 79 44 30 30 24 15 7 7 10 17 18
43 46 39 38 33 26 27 27 22 20 20 19 27 30 20 38 16 18 29 33 41 47 60 63 65 72 78 84 96 98 99 91 93 61 34 34 26 21 8 7 10 15 51 59
42 45 50 45 25 31 27 26 26 25 25 31 39 33 26 38 30 24 30 35 40 47 53 59 64 70 80 90 94 97 97 96 77 74 61 28 24 10 8 11 16 43 75 80
44 33 72 26 27 26 26 28 27 29 29 29 38 31 20 22 38 31 35 33 36 36 33 44 68 75 89 92 93 98 98 96 95 80 34 27 13 8 12 22 70 89 86 87
47 39 29 26 21 16 18 18 32 36 31 35 32 21 29 42 45 39 38 40 44 44 43 49 64 85 93 97 98 98 98 94 76 47 30 17 8 11 15 19 71 97 100 74
28 51 82 41 21 16 16 27 43 30 39 41 24 41 45 62 55 52 43 49 62 59 64 70 73 87 94 98 99 100 94 91 95 53 22 8 10 12 14 20 42 90 85 59
60 60 48 42 23 22 34 44 42 27 34 54 51 55 62 51 48 57 62 78 83 85 82 82 89 97 99 98 98 97 97 94 89 29 10 9 12 13 14 23 30 35 46 58
60 56 53 32 27 32 54 32 40 34 52 68 39 41 48 61 48 50 56 80 85 91 95 96 97 98 99 98 94 94 97 90 58 36 12 11 14 12 17 27 31 38 48 63
46 48 49 29 32 45 32 32 34 39 42 53 58 69 66 82 55 52 60 73 84 91 95 100 98 96 98 96 96 95 94 64 32 16 12 17 14 13 20 31 34 42 64 68
31 44 52 56 50 47 44 56 59 63 66 64 62 62 64 74 68 68 66 65 64 76 93 100 99 99 96 95 95 92 57 42 22 13 18 20 16 18 29 32 36 58 70 73
50 40 51 61 67 80 59 66 69 72 69 74 65 77 81 82 80 80 76 78 82 95 100 100 99 97 96 94 91 66 44 32 19 20 23 21 19 25 33 37 38 63 68 67
63 62 60 70 80 62 65 66 67 73 77 81 85 91 93 86 85 82 90 91 96 99 99 97 96 95 94 90 68 43 26 18 22 27 30 27 24 26 32 34 40 53 75 70
40 39 43 58 66 55 62 69 75 83 85 85 85 89 91 90 90 97 97 100 99 97 96 96 95 90 82 44 21 16 19 25 29 34 34 32 34 35 32 38 37 43 64 78
40 45 64 48 61 70 76 86 90 99 100 88 85 87 93 100 99 100 100 97 97 96 93 86 71 61 46 28 22 19 24 31 38 42 42 39 40 44 51 48 47 46 54 74
49 54 61 72 82 91 100 99 99 100 92 88 89 95 92 93 94 98 98 96 90 66 43 41 44 30 21 18 21 28 34 41 51 52 52 48 45 46 50 58 59 55 56 66
69 73 81 88 85 89 100 99 97 90 88 87 87 93 96 97 97 95 77 48 36 29 24 22 20 21 20 24 31 38 44 42 45 61 65 59 51 49 51 56 61 68 62 62
70 75 80 85 94 95 90 83 73 75 80 83 89 92 94 86 64 44 33 30 27 24 22 21 22 27 33 38 44 52 57 82 81 63 67 77 76 69 60 55 64 74 76 70
79 86 96 94 83 73 71 71 76 82 89 92 92 83 66 43 37 34 30 27 25 26 31 35 39 42 45 50 56 56 55 53 61 60 78 87 85 79 78 77 64 66 76 72
77 78 75 72 71 73 78 84 87 83 76 64 50 40 37 36 34 31 30 33 37 35 40 39 36 34 37 39 39 38 37 36 35 40 52 64 70 76 57 59 66 76 86 75
78 77 76 76 75 72 69 64 55 41 34 34 36 37 36 36 36 36 38 38 38 32 30 31 32 34 35 36 35 32 29 30 43 64 59 72 87 94 70 89 94 99 99 86
87 84 79 75 72 63 48 34 30 34 39 40 40 39 38 38 38 35 34 33 35 36 38 38 39 39 39 37 34 33 34 36 55 100 99 75 100 93 67 95 100 100 100 99
87 82 79 71 56 42 38 42 44 44 44 43 42 41 40 38 36 37 42 40 36 32 28 25 22 20 20 21 22 25 33 37 38 52 60 100 100 86 76 97 98 99 99 99
92 86 65 55 54 53 50 48 47 47 47 47 44 42 43 44 43 41 37 34 29 22 16 10 8 8 9 10 12 15 29 48 70 100 100 100 100 87 86 96 98 98 100 98
68 66 67 64 61 58 53 52 52 54 55 52 51 50 48 46 44 39 28 18 11 7 8 10 11 11 12 13 16 20 96 100 100 100 100 100 100 96 76 83 89 98 99 98
79 80 76 69 59 55 56 62 65 59 58 56 55 55 55 48 33 20 10 8 9 12 12 13 14 15 15 18 26 52 69 100 100 100 100 100 99 99 82 77 69 74 90 97
84 73 64 59 59 62 68 66 66 63 60 62 62 56 42 23 12 9 11 14 15 16 16 16 17 19 25 47 89 100 100 100 100 100 100 100 100 99 94 79 76 69 81 94
76 69 66 65 72 76 76 75 74 70 67 64 50 30 16 10 13 16 17 19 18 17 18 19 22 27 41 73 100 100 100 100 100 100 100 100 100 98 84 73 77 75 84 95

GFSNGP_700_rhum_015.txt.gz
RH
32 33 36 39 39 38 26 25 28 28 26 25 28 23 32 32 35 37 33 51 62 65 65 70 73 77 85 80 67 69 80 88 99 99 99 99 97 96 94 95 86 85 69 62
36 36 41 42 41 40 38 31 29 27 27 26 27 27 29 30 31 34 44 26 24 48 71 71 68 69 69 63 67 76 81 88 100 100 100 96 96 94 100 95 84 85 86 80
44 41 39 40 26 33 31 34 32 30 26 25 27 29 33 34 34 27 21 32 26 26 27 49 57 56 56 49 51 62 92 100 99 97 93 91 98 98 96 94 92 91 71 40
54 52 51 34 30 33 34 35 32 31 30 29 30 32 34 35 30 25 32 40 42 44 43 41 47 44 45 58 66 89 99 100 100 100 100 100 99 96 94 94 88 65 57 27
56 47 43 31 30 28 21 30 30 29 33 30 33 36 32 25 26 37 46 47 54 57 49 51 57 61 74 81 85 86 94 100 99 98 97 97 97 96 95 88 76 58 46 26
56 50 62 39 34 28 23 35 38 32 30 32 30 26 25 27 31 41 51 46 58 55 49 51 72 86 92 99 100 100 100 100 100 96 98 96 94 95 93 70 58 54 21 16
48 35 33 42 40 34 29 40 49 46 43 35 27 30 31 40 57 54 44 43 46 54 57 60 67 86 96 96 94 94 98 96 97 98 97 94 95 86 79 68 50 23 16 17
49 64 56 44 45 42 42 41 48 47 33 31 31 31 34 48 63 58 54 54 55 65 83 87 95 98 99 99 99 98 97 99 99 96 95 96 91 82 70 33 24 20 18 20
41 47 40 42 39 38 42 44 36 34 35 37 39 49 61 72 66 62 61 67 76 93 93 96 99 98 99 100 100 99 98 97 96 96 96 90 68 55 27 28 24 23 23 24
63 58 51 51 52 55 56 53 44 44 44 52 61 67 69 71 76 79 82 93 99 98 100 100 100 100 100 98 99 99 97 94 96 87 48 60 42 25 28 32 30 30 30 30
49 41 45 50 54 56 59 60 56 62 62 61 66 72 77 82 82 82 84 80 80 95 100 100 92 88 85 80 79 87 94 86 56 52 46 25 23 26 28 32 40 41 40 38
55 53 50 50 52 56 59 66 66 61 62 66 75 83 82 72 82 81 78 75 74 78 80 73 71 73 78 86 86 76 56 51 40 25 23 24 24 28 39 37 33 40 50 48
44 40 46 52 57 42 38 44 51 56 64 70 82 84 76 82 83 73 71 66 66 66 69 76 82 77 64 51 47 42 38 33 27 21 20 24 29 36 34 37 43 38 50 59
50 40 33 32 38 43 50 57 61 67 78 91 82 82 85 72 64 61 61 66 74 79 82 71 54 41 30 25 22 21 20 20 21 25 29 33 38 39 36 40 54 47 46 58
29 31 38 45 50 55 63 71 79 88 92 87 89 71 60 57 56 58 71 78 74 61 45 35 30 28 26 25 24 24 26 29 31 33 35 38 40 40 45 52 62 50 35 36
28 39 47 54 62 75 81 88 91 94 95 78 62 61 61 62 69 73 68 55 40 34 32 31 30 30 31 32 31 31 31 32 33 32 33 35 38 46 80 88 90 74 57 70
37 48 58 67 73 72 77 90 98 90 68 65 66 63 61 54 44 35 32 33 34 34 33 31 31 32 33 34 34 34 34 34 35 36 37 38 40 42 57 68 55 50 100 84
53 64 73 75 75 82 97 96 82 70 66 61 55 46 34 30 31 34 36 36 36 34 34 36 38 37 37 37 35 31 26 21 16 13 11 10 12 17 83 52 62 81 74 81
71 80 85 81 86 90 87 81 82 65 59 49 37 31 32 34 36 38 39 38 38 38 40 39 37 36 35 31 25 17 10 8 7 8 8 9 10 10 11 13 67 99 68 85
92 92 86 85 93 95 95 85 66 56 44 34 33 34 37 41 43 43 42 40 40 41 41 37 36 32 25 14 8 7 8 9 9 10 10 11 12 12 14 18 21 37 53 97
98 94 96 96 93 89 75 68 54 39 37 40 41 43 45 46 44 45 45 45 44 45 42 37 28 14 8 7 8 9 10 10 10 10 11 13 17 30 100 97 76 73 67 74
96 96 95 95 90 83 69 50 44 43 44 46 47 48 49 52 53 53 50 50 48 44 34 18 8 8 8 10 11 11 10 10 12 14 18 27 58 64 83 100 97 95 100 99
95 96 95 95 90 66 52 52 51 50 51 52 53 55 58 59 57 56 55 50 42 21 9 7 8 12 13 13 12 11 12 15 18 21 28 61 99 100 100 100 100 100 100 100
96 96 98 84 64 65 63 59 59 59 60 60 64 65 66 67 67 63 51 26 10 8 9 11 14 15 14 13 15 17 19 22 28 38 44 67 100 100 100 100 100 100 100 100
98 96 84 80 81 80 76 69 69 70 71 79 87 81 71 68 60 34 12 8 9 11 14 17 18 16 15 19 22 24 30 39 47 58 65 68 74 98 100 100 100 100 100 100
88 86 91 94 98 94 84 84 82 81 85 94 93 82 70 43 15 9 9 10 12 16 20 23 20 16 21 27 29 36 46 53 59 68 71 78 85 91 94 98 100 100 100 100
95 98 99 98 98 96 94 94 92 88 85 86 80 52 21 10 9 10 12 14 16 22 26 24 18 23 30 34 40 51 59 63 70 78 81 86 90 92 95 96 97 99 100 100